Location: Mountain Lakes
(44.1215°N, 71.9554°W)
Time: 17:56:38
(UTC+00:00)

Cosmos 1151 Rocket - Visible Passes

Search period start: 03 December 2024 00:00
Search period end: 13 December 2024 00:00
Orbit: 588 x 608 km, 82.5° (Epoch: 03 December)

Date Brightness Start Highest point End Pass type
(mag) Time Alt. Az. Time Alt. Az. Time Alt. Az.
08 Dec 5.9 10:58:20 10° NE 11:00:03 12° ENE 11:01:44 10° E visible
09 Dec 5.7 11:07:55 10° NNE 11:10:55 18° ENE 11:13:54 10° ESE visible
10 Dec 5.1 11:18:02 10° NNE 11:21:44 27° ENE 11:25:23 10° SE visible
11 Dec 4.3 11:28:22 10° N 11:32:29 41° ENE 11:36:32 10° SSE visible
12 Dec 3.5 11:38:53 10° N 11:43:11 66° E 11:47:25 10° SSE visible
